STARLINK-32346, 61849

Orbit data source: Space-Track

STARLINK-32346, 61849 is a payload satellite owned by SpaceX/Seattle (US) in LEO that was launched on Thu, 07 Nov 2024 UTC via an FALCON 9 launch vehicle from the Air Force Eastern Test Range (AFETR). Payload-class satellites include a variety of spacecraft equipped with specific instruments for various scientific and technological missions. These include communications satellites like Starlink; space stations such as the ISS; scientific satellites like the Hubble; Earth observation satellites from companies like Planet Labs, Umbra, and HawkEye 360; GPS; miniature CubeSats for education and research; and military/defense satellites.

Loading next visibility...
Identifier
61849, 2024-202E
Orbit
LEO
Last TLE update
13 hours ago
Origin
Manufacturer
SpaceX/Seattle
Mission
Operational Commercial Communications
Bus & Motor
STARLINK V2M, Unknown motor
Mass
730 kg wet, ~700 kg dry
Launch date (UTC)
2024-11-07 (8 months ago)
Launch vehicle
FALCON 9
Launch site
Air Force Eastern Test Range (AFETR)
Object type
Payload
Rocket body
Debris
Shape & HBR
Box + 2 Pan, 29 m
Radar Cross Section
33.884 m², Large (>1 m²)

Expand to show TLE details & history

TLE from 13 hours ago
0 STARLINK-32346
1 61849U 24202E   25186.45256492 -.00000338  00000-0 -27745-5 0  9993
2 61849  43.0024 183.2103 0001399 265.3610  94.7082 15.27577617 37644
Epoch: 2025-07-05T10:51Z
TLE epoch observation values (Epoch: 2025-07-05T10:51:41.609Z)
Latitude
0.00001°
Longitude
96.59653°
Altitude
482.911 km
Speed
7.626 km/s
True Right ascension
12h 12m 50s
True Declination
0° 00' 00"
Sunlit
Object was in daylight at epoch
Visualization orbit readout
Latitude
27.86939°
Longitude
-120.82354°
Altitude
483.947 km
Speed
7.627 km/s
Apparent Right ascension
22h 42m 48s
Apparent Declination
-4° 47' 30"
Sunlit
Object is in full shadow
Visualization observer readout
Local Sidereal Time
11:57:11
Azimuth
30.383° NE
Elevation
-51.078°
Doppler factor
1
Orbital elements
Apogee altitude
485.961 km
Perigee altitude
484.041 km
Semi-major axis
6,863.138 km
Eccentricity
0.00014
Inclination
43.0024°
RAAN
183.2103°
Arg. of periapsis
265.361°
True anomaly
Unknown
Mean anomaly
94.7082°
Eccentric anomaly
Unknown
Mean motion
3.81732 °/min
Orbital period
94.31 mins
BSTAR
-0.0000027745
Loading maneuver chart data...
Loading SW <> Apogee altitude chart data...
Loading historical data...
Loading historical data...
Loading historical data...
Loading historical data...
Loading historical data...
Loading historical data...
Loading historical data...

STARLINK-32346 Visibility forecast

Observer location: undefined°, undefined°

Span
Click to sort rows by Start time (UTC) header in descending order
Start Az.
Max El. time (UTC)
Max El. Az.
Max El.
End time (UTC)
End Az.
6 mins2025-07-06 02:44:44.322Z204.078° SW2025-07-06 02:47:44.322Z143.475° SSE24.798°2025-07-06 02:50:44.322Z88.719° E
6 mins2025-07-06 04:23:44.322Z257.542° W2025-07-06 04:26:44.322Z47.566° ENE42.747°2025-07-06 04:29:44.322Z70.872° E
5 mins2025-07-06 06:03:44.322Z297.124° NW2025-07-06 06:05:44.322Z16.75° NNE37.651°2025-07-06 06:08:44.322Z77.312° E
5 mins2025-07-06 07:42:44.322Z287.317° WNW2025-07-06 07:44:44.322Z134.987° SE44.837°2025-07-06 07:47:44.322Z110.61° ESE
4 mins2025-07-06 09:21:44.322Z247.771° W2025-07-06 09:23:44.322Z203.266° SW19.76°2025-07-06 09:25:44.322Z168.169° S
|